SCP
-0 -0 -0 -0 -0 -0 -0 -0 -0 -0 -0 -0 -0 -0 -0 -0 -0 0 0 0 0 0 0 0 0 0 0 -0 0 0 0 0 -0 -0 -0 -0 -0 -0 -0 0 -0 0 -0 0 0 0 0
-0 -0 -0 -0 -0 -0 -0 -0 -0 -0 -0 -0 -0 -0 -0 -0 -0 -0 0 0 0 0 0 0 0 0 -0 -0 0 0 0 0 -0 -0 -0 -0 0 0 0 0 0 0 0 0 0 -0 0
-0 -0 -0 -0 -0 -0 -0 -0 -0 -0 -0 -0 -0 -0 -0 -0 -0 -0 -0 0 0 0 0 0 0 0 0 0 0 0 -0 -0 0 -0 0 0 0 -0 0 0 0 0 0 0 0 0 -0
-0 -0 -0 -0 -0 -0 -0 -0 -0 -0 -0 -0 -0 -0 -0 -0 -0 -0 -0 -0 -0 -0 0 0 0 -0 0 0 0 -0 -0 -0 -0 -0 0 0 -0 0 -0 0 0 0 0 0 -0 -0 0
-0 -0 -0 -0 -0 -0 -0 -0 -0 -0 -0 -0 -0 -0 -0 -0 -0 -0 -0 -0 -0 -0 -0 -0 -0 -0 0 0 -0 0 -0 0 -0 -0 -0 -0 -0 0 0 0 -0 0 0 -0 0 0 0
-0 -0 -0 -0 -0 -0 -0 -0 -0 -0 -0 -0 -0 -0 -0 -0 -0 -0 -0 -0 0 -0 -0 -0 -0 -0 0 0 0 0 0 -0 -0 -0 -0 -0 -0 0 0 0 0 0 0 0 -0 0 -0
-0 -0 -0 -0 -0 -0 -0 -0 -0 -0 -0 -0 -0 -0 -0 -0 -0 -0 -0 -0 0 0 -0 -0 0 0 0 0 -0 -0 0 -0 -0 -0 -0 0 -0 0 -0 0 0 0 -0 0 0 0 0
-0 0 0 -0 -0 -0 -0 -0 -0 -0 -0 -0 -0 -0 -0 -0 -0 0 -0 -0 0 0 0 0 0 0 0 0 -0 0 -0 -0 -0 0 0 0 -0 0 0 0 0 -0 -0 -0 0 0 0
0 0 0 0 -0 -0 -0 -0 -0 -0 -0 -0 -0 -0 -0 -0 -0 -0 -0 0 0 0 -0 0 0 0 -0 -0 -0 0 -0 -0 -0 -0 0 0 0 0 0 0 0 0 -0 -0 -0 0 0
0 0 0 0 0 0 0 -0 -0 -0 -0 -0 -0 -0 -0 -0 0 0 0 0 0 0 -0 -0 -0 -0 0 -0 0 0 -0 -0 -0 0 0 0 0 0 -0 -0 0 0 0 0 0 0 0
0 0 0 0 0 0 0 -0 -0 -0 -0 -0 -0 -0 -0 0 0 -0 0 0 0 -0 -0 -0 -0 -0 -0 -0 -0 -0 0 -0 -0 0 -0 0 0 -0 -0 0 0 0 0 0 0 0 0
0 0 0 0 0 0 0 -0 -0 -0 -0 -0 -0 -0 -0 0 0 0 0 0 0 -0 0 0 0 -0 -0 0 -0 0 -0 -0 0 0 0 0 0 0 0 0 0 0 0 0 0 0 0
0 0 0 0 0 0 0 -0 -0 -0 -0 -0 -0 -0 0 0 0 0 0 -0 0 0 0 0 -0 -0 0 0 0 0 0 0 -0 -0 0 0 0 0 0 -0 0 0 -0 -0 0 0 0
0 0 0 0 0 0 -0 -0 -0 -0 -0 -0 -0 -0 0 0 0 0 -0 -0 0 0 0 0 0 -0 0 -0 0 0 0 0 0 -0 0 -0 0 0 0 0 0 0 0 -0 0 -0 0
0 0 0 0 0 0 -0 -0 -0 -0 -0 -0 -0 0 -0 0 0 0 -0 0 0 0 0 0 0 0 0 0 0 0 -0 0 0 0 0 0 0 0 0 0 0 0 0 0 0 0 0
0 0 0 0 0 0 -0 -0 -0 -0 -0 -0 0 -0 0 0 0 0 -0 -0 0 0 0 0 -0 0 0 0 0 0 0 0 0 0 0 0 0 0 0 0 0 0 0 0 0 0 0
0 0 0 0 0 0 -0 -0 -0 -0 -0 -0 -0 -0 0 0 -0 -0 -0 0 0 0 0 0 -0 0 -0 0 0 0 0 0 0 0 0 0 0 0 0 0 0 0 0 0 0 0 0
0 0 0 0 0 0 0 -0 -0 -0 -0 0 -0 0 0 -0 0 -0 -0 0 0 0 0 0 0 0 0 0 0 -0 0 0 0 0 0 0 0 0 0 0 0 0 0 0 0 0 0
0 0 0 0 0 0 0 0 0 -0 -0 0 0 0 0 -0 0 0 0 0 0 0 0 0 0 0 0 0 0 0 0 0 0 0 0 0 0 0 0 0 0 0 0 0 0 0 0
0 0 0 0 0 0 0 0 0 -0 0 0 0 0 0 0 0 0 0 0 0 0 0 0 0 0 0 0 0 0 0 0 0 0 0 0 0 0 0 0 0 0 0 0 0 0 0
0 0 0 0 0 0 0 0 0 0 0 0 0 0 0 0 0 0 0 0 0 0 0 0 0 0 0 0 0 0 0 0 0 0 0 0 0 0 0 0 0 0 0 0 0 0 0
0 0 0 0 0 0 0 0 0 0 -0 0 0 0 0 0 0 0 0 0 0 0 0 0 0 0 -0 0 0 0 0 0 0 0 0 0 0 0 0 0 0 0 0 0 0 0 0
0 0 0 0 0 0 0 0 0 0 0 0 0 0 0 0 0 0 0 0 0 0 0 0 0 -0 0 0 0 0 0 0 0 0 0 0 0 0 0 0 0 0 0 0 0 0 0
0 0 0 0 0 0 0 0 0 0 0 0 0 0 0 0 0 0 0 0 0 0 0 0 0 0 0 0 0 0 0 0 0 0 0 0 0 0 0 0 0 0 0 0 0 0 0
0 0 0 0 0 0 0 0 0 0 0 0 0 0 0 0 0 0 0 0 0 0 0 0 0 0 0 0 0 0 0 0 0 0 0 0 0 0 0 0 0 0 0 0 0 0 0
0 0 0 0 0 0 0 0 0 0 0 0 0 0 0 0 0 0 0 0 0 0 0 0 0 0 0 0 0 0 0 0 0 0 0 0 0 0 0 0 0 0 0 0 0 0 0
0 0 0 0 0 0 0 0 0 0 0 0 0 0 0 0 0 0 0 0 0 0 0 0 0 0 0 0 0 0 0 0 0 0 0 0 0 0 0 0 0 0 0 0 0 0 0
0 0 0 0 0 0 0 0 0 0 0 0 0 0 0 0 0 0 0 0 0 0 0 0 0 0 0 0 0 0 0 0 0 0 0 0 0 0 0 0 0 0 0 0 0 0 0
0 0 0 0 0 0 0 0 0 0 0 0 0 0 0 0 0 0 0 0 0 0 0 0 0 0 0 0 0 0 0 0 0 0 0 0 0 0 0 0 0 0 0 0 0 0 0
Wind_Speed_500mb
48 48 47 47 46 46 46 46 45 42 36 26 19 17 16 16 17 18 19 16 11 5 8 8 10 4 14 16 10 4 12 11 8 5 13 16 23 26 24 25 30 21 36 30 24 20 22
45 46 46 45 45 45 44 44 44 43 41 36 26 18 16 14 14 14 17 17 7 5 5 7 11 3 10 24 8 6 7 5 4 7 12 13 12 12 22 16 15 15 30 25 23 37 26
43 44 45 45 44 44 44 42 42 41 41 40 35 26 18 16 14 13 16 18 1 4 3 9 9 9 11 7 11 7 7 2 6 7 10 8 4 13 5 13 16 13 23 22 28 22 24
43 43 44 44 44 45 44 43 42 41 40 39 39 33 27 16 15 13 15 11 1 2 4 9 4 10 5 10 11 8 7 2 4 8 7 6 8 15 22 4 11 22 22 26 32 26 22
42 43 42 42 43 44 44 44 43 42 40 40 39 38 32 23 13 12 10 7 4 7 7 8 2 10 13 9 15 11 12 6 10 11 7 5 10 19 12 22 21 16 26 17 23 14 22
40 42 43 43 43 44 44 44 44 44 42 41 39 37 35 29 16 12 9 8 8 8 8 4 8 14 14 11 11 11 13 13 10 13 15 18 16 18 20 20 18 12 19 7 11 22 13
40 42 44 45 45 44 44 45 45 45 44 43 41 37 35 30 17 12 9 14 10 10 22 26 7 9 13 10 10 13 17 15 15 17 24 18 18 23 12 4 21 24 19 11 18 18 6
41 43 45 46 47 48 47 47 47 47 46 44 42 38 33 30 15 10 11 13 7 12 19 21 16 16 8 7 14 14 14 22 16 27 15 13 22 10 12 9 13 19 21 21 15 13 17
42 45 46 47 49 50 51 50 50 50 49 46 45 41 31 28 12 11 15 10 7 12 17 18 21 26 24 20 9 23 20 10 19 13 16 26 21 10 11 14 17 21 25 22 22 14 20
44 45 46 47 49 50 52 52 52 52 52 48 46 42 31 18 4 5 13 9 7 11 12 24 24 18 19 17 14 7 14 13 13 9 8 8 10 12 18 18 12 26 10 12 20 15 26
44 46 47 47 49 50 52 53 52 53 52 48 47 44 31 15 12 11 9 4 6 6 11 30 29 27 26 20 25 22 13 14 20 9 18 10 8 12 18 17 7 10 11 13 17 21 28
45 46 48 49 49 51 52 53 52 53 53 49 47 45 28 12 16 10 9 7 5 14 7 19 21 24 25 24 13 21 21 15 8 16 15 7 3 10 19 2 10 15 19 25 25 27 28
48 47 47 49 49 50 52 54 54 54 55 52 47 39 17 18 1 15 12 12 13 18 14 22 29 32 31 19 17 21 21 21 14 16 20 13 20 9 13 20 21 19 24 21 25 26 25
46 48 48 48 48 49 50 53 55 55 55 55 46 26 5 21 13 11 16 19 16 5 17 7 15 24 28 26 22 17 12 14 8 17 15 12 21 12 7 14 25 22 15 19 29 26 21
46 45 46 46 47 48 48 51 53 54 53 54 37 10 1 7 15 15 26 20 15 13 7 8 20 20 24 22 8 18 22 15 12 3 14 7 5 11 2 14 13 27 17 12 19 28 26
45 44 44 45 46 46 47 49 50 52 50 51 28 3 1 4 22 14 19 27 10 5 9 12 21 26 27 28 22 18 22 4 8 8 10 10 19 9 4 11 26 20 20 16 16 20 23
41 42 42 43 44 44 45 45 48 50 47 41 11 14 4 12 14 22 18 19 15 7 10 16 21 6 25 16 20 25 13 16 4 9 13 11 9 14 15 11 15 8 18 15 10 16 21
41 41 40 40 42 41 42 40 44 47 47 34 11 9 6 13 22 28 21 9 6 19 20 17 13 16 9 14 14 23 11 8 3 8 16 8 10 18 29 15 10 18 22 19 15 20 23
38 38 39 39 39 39 38 36 36 38 43 49 18 12 2 18 12 14 8 14 14 14 19 16 17 11 9 13 11 15 3 12 7 12 9 9 9 13 17 21 13 11 1 13 11 16 25
35 34 35 37 37 38 36 33 30 28 30 33 14 6 13 23 23 19 3 18 13 11 19 16 11 8 15 12 12 8 10 6 6 2 2 3 11 18 21 18 14 12 12 11 12 9 20
35 34 32 34 36 36 35 33 26 22 22 20 9 3 7 5 10 12 10 19 18 13 21 23 18 24 20 14 15 17 9 13 13 12 11 7 20 25 19 11 15 19 20 18 20 22 22
33 32 32 32 32 33 33 31 27 19 13 5 13 11 6 26 20 16 17 24 24 16 7 23 27 27 22 13 20 15 9 12 14 20 18 8 17 13 24 20 15 21 20 14 21 19 16
32 32 31 32 33 31 30 29 24 17 9 8 12 13 12 13 18 20 21 21 13 11 7 21 11 26 21 8 8 10 8 7 10 7 17 12 14 7 20 9 15 19 15 17 13 5 11
33 33 31 31 29 30 29 25 23 15 9 8 16 14 17 19 16 18 10 12 18 19 22 8 17 19 14 19 13 7 5 7 14 12 14 11 13 11 14 12 15 7 5 6 9 2 6
34 36 34 28 26 25 28 25 22 18 11 8 11 11 17 16 25 17 19 24 24 15 22 15 2 8 20 14 11 9 13 12 21 14 13 16 14 2 6 13 19 20 11 9 7 7 13
32 36 34 28 25 22 22 25 22 20 16 8 12 13 14 20 10 14 14 22 18 20 15 9 5 12 13 15 15 16 19 14 13 12 13 13 18 11 9 7 8 16 16 11 2 17 20
31 35 35 31 25 24 21 22 25 19 18 15 12 19 11 27 37 11 14 16 11 20 13 26 20 14 13 14 18 18 20 9 16 18 14 16 17 20 15 10 14 20 19 10 12 5 19
35 37 35 30 27 24 21 17 20 23 17 12 9 17 14 27 37 21 18 20 18 18 18 19 18 15 17 18 15 14 11 12 17 12 10 17 13 13 21 23 16 24 17 10 11 14 9
35 34 32 29 27 23 21 16 14 22 17 13 9 7 14 24 30 23 25 30 28 16 14 11 6 13 21 10 10 7 8 11 8 14 17 12 15 6 7 3 12 22 6 15 12 12 10
Wind_Direction_500mb
38 37 36 34 33 32 31 31 30 27 24 13 357 350 356 5 13 16 17 17 16 72 102 67 31 44 173 224 83 90 76 128 165 238 234 226 236 230 243 240 235 246 263 240 263 259 221
36 34 32 30 29 27 26 25 24 23 20 17 6 344 329 333 344 354 1 0 6 116 87 37 7 176 204 247 139 136 130 126 200 223 230 230 256 265 287 259 232 262 249 260 249 256 234
29 28 27 25 24 23 21 20 18 17 15 13 9 359 336 313 313 328 345 350 269 140 54 8 9 181 253 92 154 172 162 280 221 193 189 211 242 226 291 229 247 267 264 246 253 247 253
19 18 19 19 19 18 16 15 13 10 8 7 5 360 351 322 296 309 339 3 160 261 324 358 91 190 328 172 181 187 199 210 187 174 146 190 224 275 247 6 233 242 235 252 202 213 220
11 11 11 12 13 13 12 11 9 5 2 1 360 357 351 339 294 286 325 348 326 264 289 338 177 233 144 173 192 188 189 194 162 178 186 220 232 271 202 229 215 208 255 212 124 186 244
6 5 6 5 6 7 7 7 6 2 358 356 353 353 349 342 309 265 293 319 284 259 261 292 238 247 187 160 161 190 196 180 184 188 210 235 231 234 224 233 251 211 236 176 263 154 222
2 0 0 360 359 359 1 1 2 359 355 352 347 347 346 339 317 256 260 301 255 218 219 241 163 280 137 153 162 192 189 200 210 226 248 191 260 227 250 265 346 315 307 285 197 121 268
356 356 355 354 353 352 353 354 356 354 351 349 343 338 340 337 319 253 216 259 352 347 280 219 224 240 210 198 178 166 173 213 201 237 189 232 233 32 318 277 261 259 254 253 256 138 227
348 349 351 350 347 346 346 348 348 347 345 344 342 334 332 334 314 244 211 258 281 313 251 168 199 194 182 191 202 160 198 218 239 222 212 267 57 82 256 213 241 237 257 256 268 162 220
342 345 347 348 346 344 342 344 344 343 341 339 338 333 325 327 302 209 218 236 278 292 262 150 182 200 179 209 177 160 216 272 214 313 212 266 61 234 219 236 260 271 144 297 275 226 233
338 340 341 341 340 340 341 342 344 342 340 337 335 329 321 285 242 232 147 274 249 257 258 146 170 152 186 207 125 183 198 226 283 150 250 96 191 225 253 47 311 3 318 277 276 255 253
331 333 334 334 334 335 337 338 341 343 342 337 334 329 317 271 236 211 209 243 272 235 216 157 159 190 189 209 197 138 190 229 352 280 250 315 25 284 7 350 286 332 271 249 255 254 252
325 327 328 328 330 330 333 333 336 340 341 338 335 327 298 219 106 206 210 212 224 252 113 158 183 186 200 181 168 182 183 196 271 229 194 189 212 119 278 267 204 238 259 258 250 231 253
321 322 324 325 325 327 329 330 333 337 341 338 337 328 294 204 223 212 197 225 256 277 186 87 200 192 206 175 201 187 218 206 211 283 293 255 180 185 107 297 314 315 322 295 301 296 312
318 321 322 323 325 325 326 326 330 336 343 338 342 350 295 234 207 195 219 227 217 267 347 197 201 208 205 197 267 202 225 258 78 285 311 279 176 128 40 307 288 288 243 339 300 283 267
317 318 319 321 324 325 326 326 329 334 343 341 343 295 281 228 175 189 236 251 282 251 312 245 240 215 218 199 196 203 204 139 162 267 289 23 295 131 67 278 242 259 328 285 238 261 272
317 318 319 321 322 324 326 329 330 333 342 343 347 258 33 152 185 223 240 234 220 178 252 242 252 262 257 264 191 230 254 113 162 183 239 297 256 279 222 240 329 266 245 225 256 302 304
318 320 320 320 321 323 325 331 332 337 341 357 305 259 153 171 214 222 240 222 22 264 211 240 273 291 258 248 245 250 252 79 114 234 234 79 306 295 288 51 324 286 293 312 288 281 278
319 319 320 321 322 324 326 330 333 339 347 348 305 288 205 197 243 203 189 248 226 241 241 219 232 243 225 232 243 292 334 58 201 234 332 180 238 282 290 187 194 246 33 292 295 292 276
321 319 320 321 323 324 326 328 331 334 341 341 293 253 171 206 260 289 31 256 227 201 263 248 271 220 208 216 223 237 196 139 212 171 52 354 263 270 271 342 334 290 237 256 286 267 275
317 318 319 320 323 324 326 327 331 331 337 338 259 82 340 256 182 294 274 290 269 206 226 213 219 227 220 236 236 225 201 124 191 165 199 263 268 271 273 292 276 277 290 281 264 271 274
318 318 318 318 322 323 325 328 332 334 339 350 308 334 321 279 284 259 233 250 246 248 239 222 239 218 241 208 240 275 189 198 221 170 237 199 269 285 279 253 251 273 269 257 275 286 278
322 319 315 316 317 322 323 328 329 339 21 307 327 289 284 274 237 242 246 230 274 283 199 270 260 249 225 99 53 54 30 6 310 233 207 228 271 267 276 38 287 267 272 246 262 291 297
323 322 319 315 314 317 321 325 326 329 320 335 314 302 274 262 244 254 242 273 261 262 272 183 257 239 94 115 129 129 164 215 220 215 283 225 246 256 275 277 270 99 53 345 250 259 213
323 327 325 317 309 312 324 320 322 315 301 281 302 300 286 272 272 279 258 254 261 239 247 231 99 13 141 167 218 202 207 226 225 205 211 245 245 229 259 286 256 169 177 183 227 246 178
312 316 323 318 307 299 314 327 319 311 302 283 281 270 268 286 277 334 292 261 260 229 174 195 168 162 187 246 216 250 256 218 155 172 238 218 248 163 256 226 286 86 124 141 151 265 114
306 307 315 318 307 295 295 321 324 310 297 287 254 279 260 269 269 285 264 308 261 275 257 156 167 183 210 233 245 248 255 233 245 221 161 201 209 219 223 231 259 114 144 150 238 93 129
292 298 306 308 305 299 284 293 317 318 300 281 270 268 251 273 268 278 271 279 284 253 259 146 174 205 195 244 241 251 258 232 237 255 173 201 199 206 224 244 253 135 154 224 88 126 134
298 294 300 302 301 299 273 278 302 313 305 281 259 279 268 252 256 287 266 249 248 264 321 218 256 222 218 214 252 268 238 261 248 256 172 253 215 250 150 263 98 159 178 126 153 156 146
Wind_Speed_850mb
48 48 47 47 46 46 46 46 45 42 36 26 19 17 16 16 17 18 19 16 11 5 8 8 10 4 14 16 10 4 12 11 8 5 13 16 23 26 24 25 30 21 36 30 24 20 22
45 46 46 45 45 45 44 44 44 43 41 36 26 18 16 14 14 14 17 17 7 5 5 7 11 3 10 24 8 6 7 5 4 7 12 13 12 12 22 16 15 15 30 25 23 37 26
43 44 45 45 44 44 44 42 42 41 41 40 35 26 18 16 14 13 16 18 1 4 3 9 9 9 11 7 11 7 7 2 6 7 10 8 4 13 5 13 16 13 23 22 28 22 24
43 43 44 44 44 45 44 43 42 41 40 39 39 33 27 16 15 13 15 11 1 2 4 9 4 10 5 10 11 8 7 2 4 8 7 6 8 15 22 4 11 22 22 26 32 26 22
42 43 42 42 43 44 44 44 43 42 40 40 39 38 32 23 13 12 10 7 4 7 7 8 2 10 13 9 15 11 12 6 10 11 7 5 10 19 12 22 21 16 26 17 23 14 22
40 42 43 43 43 44 44 44 44 44 42 41 39 37 35 29 16 12 9 8 8 8 8 4 8 14 14 11 11 11 13 13 10 13 15 18 16 18 20 20 18 12 19 7 11 22 13
40 42 44 45 45 44 44 45 45 45 44 43 41 37 35 30 17 12 9 14 10 10 22 26 7 9 13 10 10 13 17 15 15 17 24 18 18 23 12 4 21 24 19 11 18 18 6
41 43 45 46 47 48 47 47 47 47 46 44 42 38 33 30 15 10 11 13 7 12 19 21 16 16 8 7 14 14 14 22 16 27 15 13 22 10 12 9 13 19 21 21 15 13 17
42 45 46 47 49 50 51 50 50 50 49 46 45 41 31 28 12 11 15 10 7 12 17 18 21 26 24 20 9 23 20 10 19 13 16 26 21 10 11 14 17 21 25 22 22 14 20
44 45 46 47 49 50 52 52 52 52 52 48 46 42 31 18 4 5 13 9 7 11 12 24 24 18 19 17 14 7 14 13 13 9 8 8 10 12 18 18 12 26 10 12 20 15 26
44 46 47 47 49 50 52 53 52 53 52 48 47 44 31 15 12 11 9 4 6 6 11 30 29 27 26 20 25 22 13 14 20 9 18 10 8 12 18 17 7 10 11 13 17 21 28
45 46 48 49 49 51 52 53 52 53 53 49 47 45 28 12 16 10 9 7 5 14 7 19 21 24 25 24 13 21 21 15 8 16 15 7 3 10 19 2 10 15 19 25 25 27 28
48 47 47 49 49 50 52 54 54 54 55 52 47 39 17 18 1 15 12 12 13 18 14 22 29 32 31 19 17 21 21 21 14 16 20 13 20 9 13 20 21 19 24 21 25 26 25
46 48 48 48 48 49 50 53 55 55 55 55 46 26 5 21 13 11 16 19 16 5 17 7 15 24 28 26 22 17 12 14 8 17 15 12 21 12 7 14 25 22 15 19 29 26 21
46 45 46 46 47 48 48 51 53 54 53 54 37 10 1 7 15 15 26 20 15 13 7 8 20 20 24 22 8 18 22 15 12 3 14 7 5 11 2 14 13 27 17 12 19 28 26
45 44 44 45 46 46 47 49 50 52 50 51 28 3 1 4 22 14 19 27 10 5 9 12 21 26 27 28 22 18 22 4 8 8 10 10 19 9 4 11 26 20 20 16 16 20 23
41 42 42 43 44 44 45 45 48 50 47 41 11 14 4 12 14 22 18 19 15 7 10 16 21 6 25 16 20 25 13 16 4 9 13 11 9 14 15 11 15 8 18 15 10 16 21
41 41 40 40 42 41 42 40 44 47 47 34 11 9 6 13 22 28 21 9 6 19 20 17 13 16 9 14 14 23 11 8 3 8 16 8 10 18 29 15 10 18 22 19 15 20 23
38 38 39 39 39 39 38 36 36 38 43 49 18 12 2 18 12 14 8 14 14 14 19 16 17 11 9 13 11 15 3 12 7 12 9 9 9 13 17 21 13 11 1 13 11 16 25
35 34 35 37 37 38 36 33 30 28 30 33 14 6 13 23 23 19 3 18 13 11 19 16 11 8 15 12 12 8 10 6 6 2 2 3 11 18 21 18 14 12 12 11 12 9 20
35 34 32 34 36 36 35 33 26 22 22 20 9 3 7 5 10 12 10 19 18 13 21 23 18 24 20 14 15 17 9 13 13 12 11 7 20 25 19 11 15 19 20 18 20 22 22
33 32 32 32 32 33 33 31 27 19 13 5 13 11 6 26 20 16 17 24 24 16 7 23 27 27 22 13 20 15 9 12 14 20 18 8 17 13 24 20 15 21 20 14 21 19 16
32 32 31 32 33 31 30 29 24 17 9 8 12 13 12 13 18 20 21 21 13 11 7 21 11 26 21 8 8 10 8 7 10 7 17 12 14 7 20 9 15 19 15 17 13 5 11
33 33 31 31 29 30 29 25 23 15 9 8 16 14 17 19 16 18 10 12 18 19 22 8 17 19 14 19 13 7 5 7 14 12 14 11 13 11 14 12 15 7 5 6 9 2 6
34 36 34 28 26 25 28 25 22 18 11 8 11 11 17 16 25 17 19 24 24 15 22 15 2 8 20 14 11 9 13 12 21 14 13 16 14 2 6 13 19 20 11 9 7 7 13
32 36 34 28 25 22 22 25 22 20 16 8 12 13 14 20 10 14 14 22 18 20 15 9 5 12 13 15 15 16 19 14 13 12 13 13 18 11 9 7 8 16 16 11 2 17 20
31 35 35 31 25 24 21 22 25 19 18 15 12 19 11 27 37 11 14 16 11 20 13 26 20 14 13 14 18 18 20 9 16 18 14 16 17 20 15 10 14 20 19 10 12 5 19
35 37 35 30 27 24 21 17 20 23 17 12 9 17 14 27 37 21 18 20 18 18 18 19 18 15 17 18 15 14 11 12 17 12 10 17 13 13 21 23 16 24 17 10 11 14 9
35 34 32 29 27 23 21 16 14 22 17 13 9 7 14 24 30 23 25 30 28 16 14 11 6 13 21 10 10 7 8 11 8 14 17 12 15 6 7 3 12 22 6 15 12 12 10
Wind_Direction_850mb
38 37 36 34 33 32 31 31 30 27 24 13 357 350 356 5 13 16 17 17 16 72 102 67 31 44 173 224 83 90 76 128 165 238 234 226 236 230 243 240 235 246 263 240 263 259 221
36 34 32 30 29 27 26 25 24 23 20 17 6 344 329 333 344 354 1 0 6 116 87 37 7 176 204 247 139 136 130 126 200 223 230 230 256 265 287 259 232 262 249 260 249 256 234
29 28 27 25 24 23 21 20 18 17 15 13 9 359 336 313 313 328 345 350 269 140 54 8 9 181 253 92 154 172 162 280 221 193 189 211 242 226 291 229 247 267 264 246 253 247 253
19 18 19 19 19 18 16 15 13 10 8 7 5 360 351 322 296 309 339 3 160 261 324 358 91 190 328 172 181 187 199 210 187 174 146 190 224 275 247 6 233 242 235 252 202 213 220
11 11 11 12 13 13 12 11 9 5 2 1 360 357 351 339 294 286 325 348 326 264 289 338 177 233 144 173 192 188 189 194 162 178 186 220 232 271 202 229 215 208 255 212 124 186 244
6 5 6 5 6 7 7 7 6 2 358 356 353 353 349 342 309 265 293 319 284 259 261 292 238 247 187 160 161 190 196 180 184 188 210 235 231 234 224 233 251 211 236 176 263 154 222
2 0 0 360 359 359 1 1 2 359 355 352 347 347 346 339 317 256 260 301 255 218 219 241 163 280 137 153 162 192 189 200 210 226 248 191 260 227 250 265 346 315 307 285 197 121 268
356 356 355 354 353 352 353 354 356 354 351 349 343 338 340 337 319 253 216 259 352 347 280 219 224 240 210 198 178 166 173 213 201 237 189 232 233 32 318 277 261 259 254 253 256 138 227
348 349 351 350 347 346 346 348 348 347 345 344 342 334 332 334 314 244 211 258 281 313 251 168 199 194 182 191 202 160 198 218 239 222 212 267 57 82 256 213 241 237 257 256 268 162 220
342 345 347 348 346 344 342 344 344 343 341 339 338 333 325 327 302 209 218 236 278 292 262 150 182 200 179 209 177 160 216 272 214 313 212 266 61 234 219 236 260 271 144 297 275 226 233
338 340 341 341 340 340 341 342 344 342 340 337 335 329 321 285 242 232 147 274 249 257 258 146 170 152 186 207 125 183 198 226 283 150 250 96 191 225 253 47 311 3 318 277 276 255 253
331 333 334 334 334 335 337 338 341 343 342 337 334 329 317 271 236 211 209 243 272 235 216 157 159 190 189 209 197 138 190 229 352 280 250 315 25 284 7 350 286 332 271 249 255 254 252
325 327 328 328 330 330 333 333 336 340 341 338 335 327 298 219 106 206 210 212 224 252 113 158 183 186 200 181 168 182 183 196 271 229 194 189 212 119 278 267 204 238 259 258 250 231 253
321 322 324 325 325 327 329 330 333 337 341 338 337 328 294 204 223 212 197 225 256 277 186 87 200 192 206 175 201 187 218 206 211 283 293 255 180 185 107 297 314 315 322 295 301 296 312
318 321 322 323 325 325 326 326 330 336 343 338 342 350 295 234 207 195 219 227 217 267 347 197 201 208 205 197 267 202 225 258 78 285 311 279 176 128 40 307 288 288 243 339 300 283 267
317 318 319 321 324 325 326 326 329 334 343 341 343 295 281 228 175 189 236 251 282 251 312 245 240 215 218 199 196 203 204 139 162 267 289 23 295 131 67 278 242 259 328 285 238 261 272
317 318 319 321 322 324 326 329 330 333 342 343 347 258 33 152 185 223 240 234 220 178 252 242 252 262 257 264 191 230 254 113 162 183 239 297 256 279 222 240 329 266 245 225 256 302 304
318 320 320 320 321 323 325 331 332 337 341 357 305 259 153 171 214 222 240 222 22 264 211 240 273 291 258 248 245 250 252 79 114 234 234 79 306 295 288 51 324 286 293 312 288 281 278
319 319 320 321 322 324 326 330 333 339 347 348 305 288 205 197 243 203 189 248 226 241 241 219 232 243 225 232 243 292 334 58 201 234 332 180 238 282 290 187 194 246 33 292 295 292 276
321 319 320 321 323 324 326 328 331 334 341 341 293 253 171 206 260 289 31 256 227 201 263 248 271 220 208 216 223 237 196 139 212 171 52 354 263 270 271 342 334 290 237 256 286 267 275
317 318 319 320 323 324 326 327 331 331 337 338 259 82 340 256 182 294 274 290 269 206 226 213 219 227 220 236 236 225 201 124 191 165 199 263 268 271 273 292 276 277 290 281 264 271 274
318 318 318 318 322 323 325 328 332 334 339 350 308 334 321 279 284 259 233 250 246 248 239 222 239 218 241 208 240 275 189 198 221 170 237 199 269 285 279 253 251 273 269 257 275 286 278
322 319 315 316 317 322 323 328 329 339 21 307 327 289 284 274 237 242 246 230 274 283 199 270 260 249 225 99 53 54 30 6 310 233 207 228 271 267 276 38 287 267 272 246 262 291 297
323 322 319 315 314 317 321 325 326 329 320 335 314 302 274 262 244 254 242 273 261 262 272 183 257 239 94 115 129 129 164 215 220 215 283 225 246 256 275 277 270 99 53 345 250 259 213
323 327 325 317 309 312 324 320 322 315 301 281 302 300 286 272 272 279 258 254 261 239 247 231 99 13 141 167 218 202 207 226 225 205 211 245 245 229 259 286 256 169 177 183 227 246 178
312 316 323 318 307 299 314 327 319 311 302 283 281 270 268 286 277 334 292 261 260 229 174 195 168 162 187 246 216 250 256 218 155 172 238 218 248 163 256 226 286 86 124 141 151 265 114
306 307 315 318 307 295 295 321 324 310 297 287 254 279 260 269 269 285 264 308 261 275 257 156 167 183 210 233 245 248 255 233 245 221 161 201 209 219 223 231 259 114 144 150 238 93 129
292 298 306 308 305 299 284 293 317 318 300 281 270 268 251 273 268 278 271 279 284 253 259 146 174 205 195 244 241 251 258 232 237 255 173 201 199 206 224 244 253 135 154 224 88 126 134
298 294 300 302 301 299 273 278 302 313 305 281 259 279 268 252 256 287 266 249 248 264 321 218 256 222 218 214 252 268 238 261 248 256 172 253 215 250 150 263 98 159 178 126 153 156 146